Weather History for KMFI - January, 2014

Change the Weather History Date:

Thursday, January 30, 2014

  Actual Average Record
Temperature  
Mean Temperature 17 °F -  
Max Temperature 27 °F 24 °F 47 °F (1919)
Min Temperature 3 °F 4 °F -35 °F (1951)
Degree Days  
Heating Degree Days 48    
Moisture  
Dew Point 15 °F    
Average Humidity 75    
Maximum Humidity 92    
Minimum Humidity 55    
Precipitation  
Precipitation 0.16 in - - ()
Sea Level Pressure  
Sea Level Pressure 29.60 in    
Wind  
Wind Speed 12 mph (WSW)    
Max Wind Speed 22 mph    
Max Gust Speed -    
Averages and records for this station are not official NWS values.
T = Trace of Precipitation, MM = Missing Value Source: NWS Daily Summary

Daily Weather History Graph

Daily Weather History Graph

Search for Another Location

Airport or City:

Trip Planner

Search our weather history database for the weather conditions in past years. The results will help you decide how hot, cold, wet, or windy it might be!

Date:

Astronomy

Jan. 30, 2014 Rise Set
Actual Time 7:21 AM CST 5:06 PM CST
Civil Twilight 6:50 AM CST 5:38 PM CST
Nautical Twilight 6:15 AM CST 6:13 PM CST
Astronomical Twilight 5:41 AM CST 6:47 PM CST
Moon 6:46 AM CST (1/30) 5:21 PM CST (1/30)
Length of Visible Light 10h 47m
Length of Day
9h 45m
Waning Crescent, 0% of the Moon is Illuminated
Jan 30
Waning Crescent
Jan 30
New
Feb 6
First Quarter
Feb 14
Full
Feb 22
Last Quarter

Hourly Weather History & Observations

Time (CST) Temp. Windchill Dew Point Humidity Pressure Visibility Wind Dir Wind Speed Gust Speed Precip Events Conditions
12:54 AM 26.1 °F 14.5 °F 12.0 °F 55% 29.66 in - SSW 13.8 mph - N/A   Partly Cloudy
1:54 AM 26.1 °F 13.6 °F 12.9 °F 58% 29.65 in - SSW 16.1 mph - N/A   Scattered Clouds
2:54 AM 26.1 °F 16.8 °F 12.9 °F 58% 29.64 in - SSW 9.2 mph - N/A   Scattered Clouds
3:54 AM 27.0 °F 15.2 °F 12.9 °F 56% 29.61 in - SSW 15.0 mph - N/A   Partly Cloudy
4:54 AM 26.1 °F 16.2 °F 12.9 °F 58% 29.60 in - South 10.4 mph - N/A   Overcast
5:54 AM 26.1 °F 16.2 °F 12.9 °F 58% 29.59 in - South 10.4 mph - N/A   Overcast
6:54 AM 27.0 °F 15.2 °F 14.0 °F 58% 29.56 in - South 15.0 mph - N/A   Overcast
7:54 AM 25.0 °F 16.3 °F 16.0 °F 69% 29.57 in - SSE 8.1 mph - N/A   Overcast
8:24 AM 25.0 °F 11.7 °F 16.0 °F 69% 29.50 in - South 17.3 mph - 0.00 in Snow Snow
8:37 AM 23.0 °F 12.4 °F 19.9 °F 88% 29.50 in - South 10.4 mph - 0.00 in Snow Snow
8:54 AM 24.1 °F 17.0 °F 21.0 °F 88% 29.59 in - South 5.8 mph - 0.00 in   Overcast
9:12 AM 23.0 °F 15.8 °F 19.0 °F 85% 29.52 in - SSE 5.8 mph - 0.02 in Snow Heavy Snow
9:26 AM 23.0 °F 13.9 °F 19.9 °F 88% 29.51 in - South 8.1 mph - 0.04 in Snow Heavy Snow
9:54 AM 23.0 °F 13.9 °F 21.0 °F 92% 29.57 in - South 8.1 mph - 0.06 in Snow Heavy Snow
10:54 AM 24.1 °F 16.0 °F 21.0 °F 88% 29.54 in - SSE 6.9 mph - 0.04 in Snow Heavy Snow
11:54 AM 24.1 °F 16.0 °F 21.0 °F 88% 29.51 in - SSE 6.9 mph - 0.04 in Snow Heavy Snow
12:46 PM 25.0 °F 20.7 °F 23.0 °F 92% 29.43 in - South 3.5 mph - 0.02 in Snow Light Snow
12:54 PM 25.0 °F 19.3 °F 21.9 °F 88% 29.49 in - SW 4.6 mph - 0.02 in Snow Light Snow
1:09 PM 25.0 °F 18.1 °F 21.9 °F 88% 29.43 in - SSW 5.8 mph - 0.00 in Snow Snow
1:28 PM 25.0 °F 20.7 °F 21.0 °F 85% 29.44 in - WSW 3.5 mph - 0.00 in Snow Light Snow
1:54 PM 26.1 °F 18.4 °F 21.9 °F 84% 29.50 in - West 6.9 mph - 0.00 in Snow Light Snow
2:13 PM 27.0 °F 18.0 °F 23.0 °F 85% 29.45 in - West 9.2 mph - 0.00 in Snow Light Snow
2:33 PM 27.0 °F 17.3 °F 21.9 °F 81% 29.47 in - West 10.4 mph - 0.00 in   Overcast
2:54 PM 27.0 °F 18.7 °F 21.9 °F 81% 29.53 in - WNW 8.1 mph - 0.00 in   Overcast
3:20 PM 27.0 °F 15.6 °F 21.0 °F 78% 29.50 in - NW 13.8 mph - 0.00 in   Overcast
3:37 PM 26.1 °F 12.0 °F 21.0 °F 81% 29.52 in - NNW 20.7 mph - 0.00 in   Overcast
3:54 PM 24.1 °F 10.1 °F 18.0 °F 77% 29.59 in - NNW 18.4 mph - 0.00 in   Overcast
4:18 PM 21.0 °F 5.0 °F 15.1 °F 78% 29.56 in - NNW 21.9 mph - N/A   Scattered Clouds
4:54 PM 19.9 °F 5.7 °F 14.0 °F 78% 29.67 in - NW 16.1 mph - N/A   Scattered Clouds
5:02 PM 19.9 °F 5.7 °F 12.9 °F 74% 29.61 in - NW 16.1 mph - N/A   Mostly Cloudy
5:54 PM 16.0 °F -1.7 °F 9.0 °F 74% 29.73 in - NW 21.9 mph - N/A   Scattered Clouds
6:54 PM 14.0 °F 1.2 °F 7.0 °F 74% 29.78 in - WNW 10.4 mph - N/A   Clear
7:54 PM 12.0 °F -2.0 °F 1.9 °F 64% 29.81 in - WNW 11.5 mph - N/A   Clear
8:54 PM 10.0 °F -6.5 °F -0.0 °F 64% 29.86 in - WNW 15.0 mph - N/A   Clear
9:54 PM 9.0 °F -6.6 °F -2.0 °F 61% 29.89 in - WNW 12.7 mph - N/A   Clear
10:54 PM 7.0 °F -8.3 °F -2.9 °F 64% 29.93 in - WNW 11.5 mph - N/A   Clear
11:54 PM 3.9 °F -15.0 °F -6.0 °F 64% 29.95 in - WNW 16.1 mph - N/A   Clear